Tracking 35274 objects as of 11-Sep-2026
HD Live streaming from Space Station
objects crossing your sky now

SL-4 DEB


SL-4 DEB is no longer on orbit


NORAD ID: 8619
Int'l Code: 1976-009D
Launch date: January 29, 1976
Source: Commonwealth of Independent States (former USSR) (CIS)
Launch site: TYURATAM MISSILE AND SPACE COMPLEX (TTMTR)
Decay date: 1976-02-09

Note: This is SATELLITE DEBRIS
Your satellite tracking list
Your tracking list is empty




NASA's NSSDC Master Catalog

Two Line Element Set (TLE):
1 08619U 76009  D 76032.89749050  .01046261 +00000-0 +00000-0 0  9996
2 08619 071.4170 289.9177 0075807 041.0473 319.6370 16.08085605000575
Source of the keplerian elements: AFSPC